IT9NKT-WX Weather Reports


Display with metric or nautical units.
time (UTC)temp
F
wind
direction
speed
MPH
gust
MPH
rain 1hr
in
rain 24hr
in
rain mn
in
humidity
%
barometer
mb
20260831074503 92 193 1.0 4.0 0.00 0.00 0.00 50 1015.8
20260831074004 92 193 2.0 4.0 0.00 0.00 0.00 50 1015.6
20260831073504 92 197 1.0 4.0 0.00 0.00 0.00 51 1015.5
20260831073003 92 195 1.0 3.0 0.00 0.00 0.00 51 1015.2
20260831072503 90 195 2.0 3.0 0.00 0.00 0.00 53 1015.2
20260831072213 90 203 2.0 4.0 0.00 0.00 0.00 53 1015.4
20260831071503 90 200 2.0 4.0 0.00 0.00 0.00 55 1015.3
20260831071004 90 184 2.0 6.0 0.00 0.00 0.00 54 1015.2
20260831070717 90 185 2.0 6.0 0.00 0.00 0.00 54 1015.2
20260831070003 90 149 2.0 4.0 0.00 0.00 0.00 54 1015.4
20260831065713 90 135 2.0 4.0 0.00 0.00 0.00 54 1015.3
20260831065005 88 132 2.0 6.0 0.00 0.00 0.00 57 1015.3
20260831064504 88 133 1.0 6.0 0.00 0.00 0.00 57 1015.2
20260831064003 89 158 1.0 4.0 0.00 0.00 0.00 57 1015.1
20260831063715 89 165 1.0 4.0 0.00 0.00 0.00 58 1015.1
20260831063004 90 174 1.0 4.0 0.00 0.00 0.00 56 1015.2
20260831062503 89 184 1.0 4.0 0.00 0.00 0.00 56 1015.3
20260831062003 89 183 1.0 4.0 0.00 0.00 0.00 55 1015.1
20260831061503 89 184 1.0 4.0 0.00 0.00 0.00 57 1015.1
20260831061004 89 187 0.0 1.0 0.00 0.00 0.00 55 1015.0
20260831060718 89 193 1.0 2.0 0.00 0.00 0.00 56 1014.9
20260831060003 88 199 1.0 2.0 0.00 0.00 0.00 57 1015.1
20260831055503 87 194 1.0 2.0 0.00 0.00 0.00 58 1015.0
20260831055004 87 190 0.0 2.0 0.00 0.00 0.00 59 1014.9
20260831054503 87 196 0.0 1.0 0.00 0.00 0.00 60 1015.0
20260831054003 87 200 0.0 1.0 0.00 0.00 0.00 60 1015.1
20260831053503 87 186 0.0 0.0 0.00 0.00 0.00 61 1015.1
20260831053004 86 185 0.0 1.0 0.00 0.00 0.00 62 1014.9
20260831052503 85 224 0.0 1.0 0.00 0.00 0.00 62 1014.8
20260831052003 85 252 0.0 1.0 0.00 0.00 0.00 64 1015.0
20260831051713 84 303 0.0 2.0 0.00 0.00 0.00 64 1014.9
20260831051003 83 307 1.0 2.0 0.00 0.00 0.00 65 1014.8
20260831050504 83 267 0.0 1.0 0.00 0.00 0.00 65 1014.8
20260831050004 83 179 0.0 1.0 0.00 0.00 0.00 66 1014.7
20260831045504 83 195 1.0 2.0 0.00 0.00 0.00 66 1014.8
20260831045004 83 190 1.0 2.0 0.00 0.00 0.00 66 1014.8
20260831044504 83 226 1.0 2.0 0.00 0.00 0.00 66 1014.7
20260831044003 83 253 0.0 2.0 0.00 0.00 0.00 66 1014.9
20260831043716 83 254 0.0 2.0 0.00 0.00 0.00 66 1014.7
20260831043214 83 194 0.0 1.0 0.00 0.00 0.00 66 1014.6
20260831042503 83 195 0.0 1.0 0.00 0.00 0.00 65 1014.7
20260831042004 83 244 0.0 1.0 0.00 0.00 0.00 65 1014.5
20260831041713 83 238 0.0 1.0 0.00 0.00 0.00 66 1014.5
20260831041004 83 195 0.0 1.0 0.00 0.00 0.00 66 1014.6
20260831040504 83 195 1.0 3.0 0.00 0.00 0.00 67 1014.5
20260831040004 84 187 1.0 3.0 0.00 0.00 0.00 68 1014.6
20260831035715 84 188 1.0 3.0 0.00 0.00 0.00 68 1014.4
20260831035003 84 163 0.0 1.0 0.00 0.00 0.00 68 1014.6
20260831034503 84 215 0.0 2.0 0.00 0.00 0.00 67 1014.5
20260831034004 84 233 0.0 2.0 0.00 0.00 0.00 65 1014.5
20260831033503 84 156 0.0 2.0 0.00 0.00 0.00 64 1014.5
20260831033004 85 134 1.0 2.0 0.00 0.00 0.00 63 1014.2
20260831032503 84 125 0.0 2.0 0.00 0.00 0.00 62 1014.2
20260831032003 84 283 0.0 2.0 0.00 0.00 0.00 61 1014.4
20260831031503 84 277 1.0 2.0 0.00 0.00 0.00 61 1014.5
20260831031003 84 258 0.0 1.0 0.00 0.00 0.00 61 1014.4
20260831030503 84 238 0.0 0.0 0.00 0.00 0.00 61 1014.4
20260831030005 84 267 0.0 1.0 0.00 0.00 0.00 61 1014.6
20260831025503 84 193 0.0 2.0 0.00 0.00 0.00 61 1014.6
20260831025003 85 162 0.0 2.0 0.00 0.00 0.00 61 1014.6
20260831024504 85 232 0.0 1.0 0.00 0.00 0.00 61 1014.5
20260831024004 84 257 0.0 2.0 0.00 0.00 0.00 62 1014.6
20260831023503 84 330 0.0 2.0 0.00 0.00 0.00 62 1014.6
20260831023003 84 331 1.0 2.0 0.00 0.00 0.00 62 1014.8
20260831022503 84 337 1.0 2.0 0.00 0.00 0.00 63 1014.9
20260831022003 84 304 0.0 1.0 0.00 0.00 0.00 64 1014.7
20260831021503 84 353 1.0 4.0 0.00 0.00 0.00 64 1014.6
20260831021004 84 4 1.0 4.0 0.00 0.00 0.00 64 1014.7
20260831020503 84 340 0.0 3.0 0.00 0.00 0.00 65 1014.7
20260831020003 84 305 0.0 1.0 0.00 0.00 0.00 65 1014.6
20260831015503 84 0 0.0 0.0 0.00 0.00 0.00 64 1014.6
20260831015004 85 0 0.0 0.0 0.00 0.00 0.00 64 1014.6
20260831014717 84 0 0.0 0.0 0.00 0.00 0.00 64 1014.7
20260831014003 85 166 0.0 1.0 0.00 0.00 0.00 63 1014.7
20260831013503 85 174 0.0 1.0 0.00 0.00 0.00 62 1014.4
20260831013003 85 170 0.0 2.0 0.00 0.00 0.00 61 1014.5
20260831012503 85 172 1.0 2.0 0.00 0.00 0.00 61 1014.4
20260831012004 86 170 0.0 1.0 0.00 0.00 0.00 60 1014.4
20260831011503 86 162 1.0 3.0 0.00 0.00 0.00 60 1014.3
20260831011004 86 160 1.0 3.0 0.00 0.00 0.00 59 1014.4
20260831010503 86 141 0.0 2.0 0.00 0.00 0.00 58 1014.4
20260831010003 86 144 0.0 2.0 0.00 0.00 0.00 57 1014.4
20260831005503 86 164 0.0 2.0 0.00 0.00 0.00 57 1014.6
20260831005004 86 175 1.0 2.0 0.00 0.00 0.00 56 1014.4
20260831004503 86 170 1.0 3.0 0.00 0.00 0.00 55 1014.5
20260831004216 86 169 1.0 3.0 0.00 0.00 0.00 55 1014.3
20260831003503 87 160 1.0 2.0 0.00 0.00 0.00 55 1014.3
20260831003004 87 169 1.0 3.0 0.00 0.00 0.00 55 1014.0
20260831002503 87 173 1.0 3.0 0.00 0.00 0.00 55 1013.9
20260831002213 86 170 1.0 2.0 0.00 0.00 0.00 56 1014.2
20260831001503 86 173 1.0 2.0 0.00 0.00 0.00 59 1014.2
20260831001003 87 184 1.0 2.0 0.00 0.00 0.00 60 1014.5
20260831000505 87 190 1.0 3.0 0.00 0.00 0.00 60 1014.6
20260831000004 87 176 1.0 3.0 0.00 0.00 0.00 60 1014.7
20260830235503 87 172 1.0 2.0 0.00 0.00 0.00 60 1014.6
20260830235004 87 191 1.0 3.0 0.00 0.00 0.00 59 1014.9
20260830234505 87 189 1.0 3.0 0.00 0.00 0.00 59 1014.7
20260830234003 87 170 1.0 2.0 0.00 0.00 0.00 59 1014.8
20260830233503 87 173 1.0 3.0 0.00 0.00 0.00 58 1014.8
20260830233003 88 181 1.0 3.0 0.00 0.00 0.00 56 1014.9
20260830232715 88 188 1.0 3.0 0.00 0.00 0.00 55 1014.8
20260830232004 88 177 0.0 1.0 0.00 0.00 0.00 53 1014.9
20260830231503 88 181 0.0 1.0 0.00 0.00 0.00 52 1014.6
20260830230503 88 193 0.0 2.0 0.00 0.00 0.00 52 1014.5
20260830230215 88 183 0.0 1.0 0.00 0.00 0.00 52 1014.6
20260830225503 88 161 0.0 1.0 0.00 0.00 0.00 52 1014.7
20260830225003 88 182 0.0 1.0 0.00 0.00 0.00 52 1014.6
20260830224503 88 189 0.0 1.0 0.00 0.00 0.00 52 1014.7
20260830224003 88 196 0.0 1.0 0.00 0.00 0.00 53 1014.5
20260830223503 88 154 0.0 1.0 0.00 0.00 0.00 53 1014.5
20260830223003 88 164 0.0 1.0 0.00 0.00 0.00 53 1014.6
20260830222504 88 192 0.0 2.0 0.00 0.00 0.00 53 1014.7
20260830222214 88 185 0.0 2.0 0.00 0.00 0.00 52 1014.6
20260830221503 88 184 0.0 2.0 0.00 0.00 0.00 52 1014.9
20260830221003 88 188 0.0 2.0 0.00 0.00 0.00 52 1014.8
20260830220503 88 191 0.0 2.0 0.00 0.00 0.00 52 1014.8
20260830220011 89 185 1.0 3.0 0.00 0.00 0.00 51 1014.8
20260830215714 89 184 1.0 3.0 0.00 0.00 0.00 51 1014.8
20260830215217 89 181 0.0 2.0 0.00 0.00 0.00 51 1014.8
20260830214503 89 183 0.0 2.0 0.00 0.00 0.00 50 1014.8
20260830214004 89 168 0.0 1.0 0.00 0.00 0.00 50 1014.7
20260830213503 89 173 0.0 1.0 0.00 0.00 0.00 49 1014.8
20260830213004 89 168 0.0 1.0 0.00 0.00 0.00 49 1014.9
20260830212504 89 182 0.0 1.0 0.00 0.00 0.00 49 1014.9
20260830212003 90 186 0.0 1.0 0.00 0.00 0.00 49 1014.8
20260830211504 90 180 0.0 2.0 0.00 0.00 0.00 49 1014.8
20260830211004 90 180 0.0 2.0 0.00 0.00 0.00 49 1015.0
20260830210503 90 183 0.0 1.0 0.00 0.00 0.00 48 1014.9
20260830210003 90 189 0.0 1.0 0.00 0.00 0.00 48 1014.9
20260830205503 90 191 0.0 1.0 0.00 0.00 0.00 48 1014.8
20260830205004 90 197 0.0 1.0 0.00 0.00 0.00 48 1014.9
20260830204504 90 187 0.0 1.0 0.00 0.00 0.00 48 1014.9
20260830204003 90 172 0.0 1.0 0.00 0.00 0.00 47 1015.1
20260830203717 90 172 0.0 1.0 0.00 0.00 0.00 47 1014.8
20260830203215 91 177 0.0 1.0 0.00 0.00 0.00 47 1014.8
20260830202503 91 187 0.0 1.0 0.00 0.00 0.00 47 1014.8
20260830202004 91 184 0.0 1.0 0.00 0.00 0.00 47 1014.8
20260830201713 91 188 0.0 1.0 0.00 0.00 0.00 47 1014.9
20260830201004 91 181 0.0 1.0 0.00 0.00 0.00 47 1014.9
20260830200504 91 174 0.0 1.0 0.00 0.00 0.00 46 1014.7
20260830200004 92 175 0.0 1.0 0.00 0.00 0.00 46 1014.6
20260830195504 92 179 0.0 1.0 0.00 0.00 0.00 45 1014.6
20260830195003 92 197 0.0 2.0 0.00 0.00 0.00 45 1014.7
20260830194503 92 199 0.0 2.0 0.00 0.00 0.00 45 1014.6
20260830194003 92 199 1.0 4.0 0.00 0.00 0.00 45 1014.7
20260830193503 93 211 0.0 4.0 0.00 0.00 0.00 45 1014.5
20260830193004 93 211 0.0 2.0 0.00 0.00 0.00 44 1014.4
20260830192503 93 190 0.0 2.0 0.00 0.00 0.00 44 1014.6
20260830192004 93 199 0.0 2.0 0.00 0.00 0.00 44 1014.4
20260830191503 93 206 0.0 2.0 0.00 0.00 0.00 43 1014.4
20260830191004 94 185 1.0 2.0 0.00 0.00 0.00 43 1014.2
20260830190504 94 167 1.0 2.0 0.00 0.00 0.00 43 1014.2
20260830190003 94 166 1.0 3.0 0.00 0.00 0.00 43 1014.2
20260830185716 94 177 1.0 3.0 0.00 0.00 0.00 43 1014.3
20260830185004 94 174 1.0 2.0 0.00 0.00 0.00 42 1014.2
20260830184503 94 168 1.0 2.0 0.00 0.00 0.00 42 1013.9
20260830184004 94 132 1.0 4.0 0.00 0.00 0.00 42 1013.7
20260830183718 95 117 1.0 4.0 0.00 0.00 0.00 42 1013.8
20260830183003 95 236 2.0 4.0 0.00 0.00 0.00 42 1013.8
20260830182504 95 244 3.0 4.0 0.00 0.00 0.00 42 1013.7
20260830182003 95 245 4.0 8.0 0.00 0.00 0.00 41 1013.8
20260830181504 95 233 4.0 8.0 0.00 0.00 0.00 41 1013.5
20260830181004 95 223 3.0 7.0 0.00 0.00 0.00 41 1013.5
20260830180503 95 196 0.0 7.0 0.00 0.00 0.00 41 1013.4
20260830180004 96 176 0.0 2.0 0.00 0.00 0.00 43 1013.4
20260830175503 96 166 0.0 2.0 0.00 0.00 0.00 42 1013.5
20260830175004 96 141 1.0 6.0 0.00 0.00 0.00 42 1013.2
20260830174503 96 141 1.0 6.0 0.00 0.00 0.00 42 1013.2
20260830174003 96 164 1.0 2.0 0.00 0.00 0.00 42 1013.3
20260830173714 97 160 1.0 2.0 0.00 0.00 0.00 41 1013.1
20260830173003 97 161 1.0 3.0 0.00 0.00 0.00 41 1013.2
20260830172714 98 169 1.0 3.0 0.00 0.00 0.00 41 1013.2
20260830172003 98 253 4.0 9.0 0.00 0.00 0.00 40 1013.0
20260830171504 98 256 9.0 9.0 0.00 0.00 0.00 40 1012.8
20260830171003 98 259 6.0 13.0 0.00 0.00 0.00 38 1012.9
20260830170716 98 257 4.0 13.0 0.00 0.00 0.00 38 1012.9
20260830170003 99 148 1.0 2.0 0.00 0.00 0.00 39 1012.9
20260830165503 99 164 1.0 2.0 0.00 0.00 0.00 39 1013.0
20260830165004 100 208 1.0 4.0 0.00 0.00 0.00 39 1012.9
20260830164503 100 260 1.0 4.0 0.00 0.00 0.00 39 1012.9
20260830164004 100 185 0.0 2.0 0.00 0.00 0.00 38 1012.8
20260830163503 101 179 1.0 2.0 0.00 0.00 0.00 37 1012.8
20260830163003 101 202 1.0 3.0 0.00 0.00 0.00 36 1012.7
20260830162503 102 215 0.0 3.0 0.00 0.00 0.00 35 1012.8
20260830162003 101 60 0.0 1.0 0.00 0.00 0.00 35 1012.7
20260830161506 101 159 1.0 3.0 0.00 0.00 0.00 35 1012.7
20260830161004 102 199 1.0 4.0 0.00 0.00 0.00 35 1012.9
20260830160504 102 115 4.0 8.0 0.00 0.00 0.00 35 1012.9
20260830160004 102 88 6.0 8.0 0.00 0.00 0.00 34 1012.8
20260830155503 101 86 6.0 8.0 0.00 0.00 0.00 31 1012.8
20260830155003 101 74 3.0 8.0 0.00 0.00 0.00 31 1012.6
20260830154504 102 54 1.0 6.0 0.00 0.00 0.00 32 1012.6
20260830154004 101 70 1.0 6.0 0.00 0.00 0.00 35 1012.5
20260830153504 100 107 1.0 3.0 0.00 0.00 0.00 36 1012.6
20260830153004 100 166 1.0 3.0 0.00 0.00 0.00 38 1012.6
20260830152503 100 125 1.0 6.0 0.00 0.00 0.00 38 1012.9
20260830152003 98 103 2.0 6.0 0.00 0.00 0.00 38 1012.7
20260830151505 98 113 1.0 4.0 0.00 0.00 0.00 39 1012.7
20260830151003 99 118 1.0 4.0 0.00 0.00 0.00 39 1012.6
20260830150504 98 104 2.0 7.0 0.00 0.00 0.00 39 1012.6
20260830150003 97 118 2.0 7.0 0.00 0.00 0.00 41 1012.6
20260830145505 98 112 2.0 6.0 0.00 0.00 0.00 40 1012.6
20260830145217 97 112 2.0 5.0 0.00 0.00 0.00 41 1012.6
20260830144504 98 136 2.0 8.0 0.00 0.00 0.00 39 1012.8
20260830144003 98 95 2.0 8.0 0.00 0.00 0.00 38 1012.7
20260830143715 98 75 2.0 6.0 0.00 0.00 0.00 35 1012.8
20260830143004 98 64 2.0 6.0 0.00 0.00 0.00 36 1012.9
20260830142503 98 53 2.0 7.0 0.00 0.00 0.00 35 1013.0
20260830142004 98 114 2.0 7.0 0.00 0.00 0.00 36 1012.9
20260830141504 99 115 2.0 7.0 0.00 0.00 0.00 34 1012.9
20260830141004 98 88 2.0 7.0 0.00 0.00 0.00 34 1013.0
20260830140504 101 90 1.0 6.0 0.00 0.00 0.00 32 1012.9
20260830140003 101 79 2.0 10.0 0.00 0.00 0.00 33 1012.9
20260830135714 100 79 3.0 10.0 0.00 0.00 0.00 33 1013.1
20260830135003 99 89 2.0 9.0 0.00 0.00 0.00 36 1013.3
20260830134715 99 106 2.0 6.0 0.00 0.00 0.00 37 1013.2
20260830134004 99 97 2.0 6.0 0.00 0.00 0.00 37 1013.5
20260830133504 98 88 2.0 7.0 0.00 0.00 0.00 37 1013.4
20260830133008 98 100 2.0 7.0 0.00 0.00 0.00 38 1013.5
20260830132503 100 69 2.0 6.0 0.00 0.00 0.00 36 1013.6
20260830132004 98 60 2.0 6.0 0.00 0.00 0.00 38 1013.8
20260830131504 98 88 3.0 8.0 0.00 0.00 0.00 38 1013.6
20260830131003 98 84 3.0 8.0 0.00 0.00 0.00 37 1013.9
20260830130503 98 77 2.0 8.0 0.00 0.00 0.00 37 1013.8
20260830130004 98 81 2.0 8.0 0.00 0.00 0.00 38 1013.9
20260830125715 98 78 2.0 6.0 0.00 0.00 0.00 36 1013.9
20260830125213 98 70 3.0 9.0 0.00 0.00 0.00 35 1014.0
20260830124504 98 68 2.0 7.0 0.00 0.00 0.00 37 1014.1
20260830124214 98 65 2.0 6.0 0.00 0.00 0.00 37 1014.0
20260830123503 98 84 2.0 10.0 0.00 0.00 0.00 37 1014.1
20260830123004 98 102 3.0 10.0 0.00 0.00 0.00 38 1014.3
20260830122504 98 115 2.0 8.0 0.00 0.00 0.00 39 1014.4
20260830122003 97 89 3.0 9.0 0.00 0.00 0.00 40 1014.4
20260830121504 97 84 3.0 9.0 0.00 0.00 0.00 41 1014.4
20260830121216 98 78 2.0 9.0 0.00 0.00 0.00 42 1014.6
20260830120714 98 72 2.0 8.0 0.00 0.00 0.00 39 1014.5
20260830120218 100 81 3.0 10.0 0.00 0.00 0.00 38 1014.4
20260830115504 99 132 2.0 9.0 0.00 0.00 0.00 41 1014.6
20260830115003 110 186 2.0 6.0 0.00 0.00 0.00 25 1014.1
20260830114503 110 185 2.0 6.0 0.00 0.00 0.00 25 1014.1
20260830114004 111 192 1.0 3.0 0.00 0.00 0.00 24 1014.0
20260830113504 110 191 1.0 4.0 0.00 0.00 0.00 25 1014.3
20260830113004 110 192 1.0 4.0 0.00 0.00 0.00 25 1014.1
20260830112504 110 201 1.0 4.0 0.00 0.00 0.00 25 1014.2
20260830112003 108 200 2.0 4.0 0.00 0.00 0.00 25 1014.3
20260830111714 109 199 2.0 4.0 0.00 0.00 0.00 25 1014.3
20260830111004 109 191 1.0 6.0 0.00 0.00 0.00 26 1014.4
20260830110503 109 186 1.0 3.0 0.00 0.00 0.00 25 1014.4
20260830110004 108 195 2.0 3.0 0.00 0.00 0.00 25 1014.4
20260830105504 108 192 2.0 6.0 0.00 0.00 0.00 26 1014.3
20260830105005 108 187 2.0 6.0 0.00 0.00 0.00 26 1014.5
20260830104503 107 185 2.0 3.0 0.00 0.00 0.00 26 1014.4
20260830104003 107 170 2.0 7.0 0.00 0.00 0.00 27 1014.6
20260830103718 107 161 2.0 7.0 0.00 0.00 0.00 26 1014.6
20260830103216 107 159 2.0 4.0 0.00 0.00 0.00 26 1014.7
20260830102503 107 195 2.0 9.0 0.00 0.00 0.00 26 1014.8
20260830102004 107 188 2.0 9.0 0.00 0.00 0.00 27 1014.8
20260830101503 107 191 2.0 4.0 0.00 0.00 0.00 26 1014.6
20260830101213 107 191 2.0 4.0 0.00 0.00 0.00 26 1014.7
20260830100503 107 181 2.0 4.0 0.00 0.00 0.00 26 1014.8
20260830100003 107 184 1.0 4.0 0.00 0.00 0.00 26 1015.0
20260830095504 106 177 2.0 4.0 0.00 0.00 0.00 27 1014.8
20260830095003 107 166 1.0 4.0 0.00 0.00 0.00 27 1015.0
20260830094505 107 180 2.0 4.0 0.00 0.00 0.00 26 1015.0
20260830094004 106 182 2.0 4.0 0.00 0.00 0.00 26 1015.0
20260830093503 106 187 2.0 7.0 0.00 0.00 0.00 26 1015.1
20260830093004 106 191 2.0 7.0 0.00 0.00 0.00 26 1015.1
20260830092503 106 181 1.0 6.0 0.00 0.00 0.00 26 1015.1
20260830092003 106 181 1.0 6.0 0.00 0.00 0.00 26 1015.1
20260830091504 106 180 1.0 4.0 0.00 0.00 0.00 26 1015.3
20260830091213 105 187 2.0 4.0 0.00 0.00 0.00 26 1015.3
20260830090505 105 192 2.0 3.0 0.00 0.00 0.00 26 1015.2
20260830090004 105 182 2.0 4.0 0.00 0.00 0.00 27 1015.4
20260830085712 105 185 2.0 4.0 0.00 0.00 0.00 26 1015.3
20260830085215 105 211 3.0 13.0 0.00 0.00 0.00 27 1015.3
20260830084505 105 218 12.0 13.0 0.00 0.00 0.00 26 1015.2
20260830084216 101 218 11.0 17.0 0.00 0.00 0.00 26 1015.4
20260830083503 101 202 3.0 17.0 0.00 0.00 0.00 26 1015.4
20260830083004 104 170 2.0 4.0 0.00 0.00 0.00 27 1015.4
20260830082503 104 175 1.0 4.0 0.00 0.00 0.00 27 1015.3
20260830082003 104 173 1.0 3.0 0.00 0.00 0.00 27 1015.3
20260830081503 104 169 1.0 3.0 0.00 0.00 0.00 28 1015.2
20260830081003 103 182 1.0 3.0 0.00 0.00 0.00 28 1015.1
20260830080504 103 205 6.0 11.0 0.00 0.00 0.00 28 1014.9
20260830080004 103 206 11.0 11.0 0.00 0.00 0.00 28 1015.3
20260830075505 98 205 7.0 12.0 0.00 0.00 0.00 28 1015.1
20260830075004 98 201 2.0 12.0 0.00 0.00 0.00 28 1015.1